Regional Weather Roundup
Issued by NWS

Home | Current Version | Previous Version | Graphics & Text | Print | Product List | Glossary On
Versions: 1 2 3 4 5 6 7 8 9 10 11 12 13 14 15 16 17 18 19 20 21 22 23 24 25 26 27 28
000
ASUS45 KCYS 021510
RWRWY

WYOMING REGIONAL WEATHER ROUNDUP
NATIONAL WEATHER SERVICE CHEYENNE WY
800 AM MST FRI DEC 02 2016

NOTE:  "FAIR" INDICATES FEW OR NO CLOUDS BELOW 12,000 FEET
WITH NO SIGNIFICANT WEATHER AND/OR OBSTRUCTIONS TO VISIBILITY.

WYZ001-021600-
YELLOWSTONE NATIONAL PARK

CITY           SKY/WX    TMP DP  RH WIND       PRES   REMARKS
LK YELLOWSTONE   N/A      9   8  96 CALM      30.13R
W YELLOWSTONE  NOT AVBL

$$
WYZ002>013-054>058-071-098>099-021600-
NORTHERN WYOMING

CITY           SKY/WX    TMP DP  RH WIND       PRES   REMARKS
JACKSON        FAIR       7   7 100 CALM      30.17R
CODY           CLOUDY    25  14  63 SW6       30.17R WCI  18
GREYBULL       CLOUDY    26  21  81 SE3       30.20R
WORLAND        CLOUDY    25  23  92 SE5       30.19R WCI  19
SHERIDAN       CLOUDY    26  21  81 CALM      30.17R
BUFFALO        CLOUDY    30  16  56 S3        30.16R
GILLETTE       CLOUDY    26  23  88 W12       30.16R WCI  16
HULETT         FAIR      21  18  86 S9        30.17R WCI  11
NEWCASTLE      FAIR      19  19 100 N9        30.17R WCI   9

$$
WYZ014>020-022>026-101>103-021600-
CENTRAL WYOMING

CITY           SKY/WX    TMP DP  RH WIND       PRES   REMARKS
BIG PINEY      FAIR       6   2  83 CALM      30.14R
PINEDALE       FAIR       1  -2  85 CALM      30.14R
DUBOIS         FAIR       5   1  85 NW10      30.12R WCI -10
LANDER         CLOUDY    23  18  81 SW9       30.15R WCI  13
RIVERTON       MOCLDY    19  11  70 NW9       30.16R WCI   8
CASPER         CLOUDY    24  22  91 W7        30.15R WCI  16
DOUGLAS        CLOUDY    24  21  88 NW3       30.17R

$$
WYZ021-027>030-104>119-021600-
SOUTHERN WYOMING

CITY           SKY/WX    TMP DP  RH WIND       PRES   REMARKS
EVANSTON       FOG       13  10  88 E5        30.12R VSB 1/4 WCI   5
FORT BRIDGER   FAIR      10  10 100 W6        30.15R WCI   1
ROCK SPRINGS   FAIR       8   7  95 W6        30.13R WCI  -2
DIXON          FAIR       8   5  86 N5        30.15R WCI   0
RAWLINS        CLOUDY    14  10  84 CALM      30.11R
SARATOGA       FAIR       3   1  92 SE5       30.11R WCI  -6
LARAMIE        FOG        9   7  92 CALM      30.08R VSB 1/2
CHEYENNE       FAIR      19  12  74 NW7       30.11R WCI  10
TORRINGTON     FAIR      15  12  88 W3        30.17R
PINE BLUFFS    FAIR      19  14  79 CALM      30.15R

$$




USA.gov is the U.S. government's official web portal to all federal, state and local government web resources and services.